| time (UTC) | temp C | wind direction | speed KPH | gust KPH | rain 1hr cm | rain 24hr cm | rain mn cm | humidity % | barometer mb |
| 20260901173110 | 25 | 329 | 0.0 | 1.6 | 0.00 | 0.00 | 0.00 | 79 | 1014.3 |
| 20260901172612 | 25 | 340 | 0.0 | 1.6 | 0.00 | 0.00 | 0.00 | 81 | 1014.3 |
| 20260901172110 | 25 | 342 | 0.0 | 0.0 | 0.00 | 0.00 | 0.00 | 82 | 1014.3 |
| 20260901171608 | 25 | 355 | 0.0 | 0.0 | 0.00 | 0.00 | 0.00 | 80 | 1014.4 |
| 20260901171111 | 25 | 0 | 0.0 | 6.4 | 0.00 | 0.00 | 0.00 | 80 | 1014.5 |
| 20260901170606 | 25 | 5 | 0.0 | 6.4 | 0.00 | 0.00 | 0.00 | 82 | 1014.5 |
| 20260901170106 | 25 | 0 | 0.0 | 3.2 | 0.00 | 0.00 | 0.00 | 80 | 1014.6 |
| 20260901165103 | 25 | 10 | 0.0 | 1.6 | 0.00 | 0.00 | 0.00 | 81 | 1014.6 |
| 20260901164604 | 25 | 320 | 0.0 | 0.0 | 0.00 | 0.00 | 0.00 | 83 | 1014.6 |
| 20260901163602 | 24 | 231 | 0.0 | 0.0 | 0.00 | 0.00 | 0.00 | 84 | 1014.7 |
| 20260901162602 | 23 | 97 | 0.0 | 1.6 | 0.00 | 0.00 | 0.00 | 89 | 1014.7 |
| 20260901162102 | 23 | 346 | 0.0 | 0.0 | 0.00 | 0.00 | 0.00 | 89 | 1014.7 |
| 20260901161603 | 23 | 67 | 0.0 | 0.0 | 0.00 | 0.00 | 0.00 | 88 | 1014.8 |
| 20260901161103 | 23 | 5 | 0.0 | 0.0 | 0.00 | 0.00 | 0.00 | 88 | 1014.7 |
| 20260901155558 | 22 | 0 | 0.0 | 8.0 | 0.00 | 0.00 | 0.00 | 89 | 1014.8 |
| 20260901155057 | 22 | 355 | 0.0 | 1.6 | 0.00 | 0.00 | 0.00 | 89 | 1014.9 |
| 20260901154558 | 22 | 355 | 0.0 | 1.6 | 0.00 | 0.00 | 0.00 | 89 | 1014.9 |
| 20260901154058 | 22 | 36 | 0.0 | 6.4 | 0.00 | 0.00 | 0.00 | 91 | 1014.9 |
| 20260901153557 | 22 | 351 | 0.0 | 6.4 | 0.00 | 0.00 | 0.00 | 91 | 1014.9 |
| 20260901153058 | 22 | 293 | 0.0 | 4.8 | 0.00 | 0.00 | 0.00 | 94 | 1015.0 |
| 20260901152559 | 22 | 15 | 0.0 | 4.8 | 0.00 | 0.00 | 0.00 | 94 | 1015.0 |
| 20260901151558 | 22 | 66 | 0.0 | 0.0 | 0.00 | 0.00 | 0.00 | 97 | 1015.0 |
| 20260901151054 | 21 | 17 | 0.0 | 8.0 | 0.00 | 0.00 | 0.00 | 97 | 1015.0 |
| 20260901150553 | 21 | 0 | 0.0 | 8.0 | 0.00 | 0.00 | 0.00 | 97 | 1015.2 |
| 20260901150054 | 21 | 15 | 0.0 | 3.2 | 0.00 | 0.00 | 0.00 | 97 | 1015.3 |
| 20260901145054 | 20 | 19 | 0.0 | 9.7 | 0.00 | 0.00 | 0.00 | 97 | 1015.3 |
| 20260901144554 | 20 | 351 | 0.0 | 1.6 | 0.00 | 0.00 | 0.00 | 97 | 1015.2 |
| 20260901144054 | 20 | 0 | 0.0 | 1.6 | 0.00 | 0.00 | 0.00 | 97 | 1015.2 |
| 20260901143554 | 20 | 16 | 0.0 | 8.0 | 0.00 | 0.00 | 0.00 | 97 | 1015.2 |
| 20260901143054 | 20 | 351 | 0.0 | 8.0 | 0.00 | 0.00 | 0.00 | 97 | 1015.2 |
| 20260901142554 | 20 | 355 | 0.0 | 4.8 | 0.00 | 0.00 | 0.00 | 98 | 1015.1 |
| 20260901141553 | 19 | 33 | 0.0 | 3.2 | 0.00 | 0.00 | 0.00 | 98 | 1015.1 |
| 20260901141052 | 18 | 355 | 0.0 | 1.6 | 0.00 | 0.00 | 0.00 | 98 | 1015.2 |
| 20260901140552 | 18 | 27 | 0.0 | 9.7 | 0.00 | 0.00 | 0.00 | 97 | 1015.1 |
| 20260901140050 | 18 | 5 | 0.0 | 9.7 | 0.00 | 0.00 | 0.00 | 97 | 1015.1 |
| 20260901134048 | 18 | 19 | 0.0 | 6.4 | 0.00 | 0.00 | 0.00 | 97 | 1015.2 |
| 20260901133549 | 18 | 40 | 0.0 | 0.0 | 0.00 | 0.00 | 0.00 | 97 | 1015.3 |
| 20260901133045 | 18 | 355 | 0.0 | 0.0 | 0.00 | 0.00 | 0.00 | 97 | 1015.3 |
| 20260901132544 | 17 | 355 | 0.0 | 3.2 | 0.00 | 0.00 | 0.00 | 97 | 1015.3 |
| 20260901132043 | 17 | 13 | 0.0 | 4.8 | 0.00 | 0.00 | 0.00 | 97 | 1015.2 |
| 20260901131537 | 18 | 21 | 0.0 | 4.8 | 0.00 | 0.00 | 0.00 | 97 | 1015.1 |
| 20260901131031 | 18 | 355 | 0.0 | 4.8 | 0.00 | 0.00 | 0.00 | 97 | 1015.1 |
| 20260901130022 | 18 | 342 | 0.0 | 0.0 | 0.00 | 0.00 | 0.00 | 97 | 1014.9 |
| 20260901125007 | 18 | 24 | 0.0 | 0.0 | 0.00 | 0.00 | 0.00 | 97 | 1014.6 |
| 20260901123955 | 18 | 348 | 0.0 | 0.0 | 0.00 | 0.00 | 0.00 | 97 | 1013.7 |
| 20260901123449 | 18 | 292 | 0.0 | 3.2 | 0.00 | 0.00 | 0.00 | 97 | 1013.2 |
| 20260901122943 | 18 | 252 | 0.0 | 6.4 | 0.00 | 0.00 | 0.00 | 97 | 1012.9 |
| 20260901122439 | 18 | 229 | 0.0 | 6.4 | 0.00 | 0.00 | 0.00 | 97 | 1012.8 |
| 20260901121931 | 18 | 221 | 0.0 | 8.0 | 0.00 | 0.00 | 0.00 | 97 | 1013.5 |
| 20260901121428 | 18 | 179 | 1.6 | 8.0 | 0.00 | 0.00 | 0.00 | 97 | 1013.3 |
| 20260901120927 | 18 | 221 | 1.6 | 8.0 | 0.00 | 0.00 | 0.00 | 97 | 1013.8 |
| 20260901120428 | 18 | 199 | 1.6 | 8.0 | 0.00 | 0.00 | 0.00 | 97 | 1013.9 |
| 20260901115927 | 18 | 0 | 0.0 | 1.6 | 0.00 | 0.00 | 0.00 | 97 | 1014.0 |
| 20260901115434 | 18 | 345 | 0.0 | 0.0 | 0.00 | 0.00 | 0.00 | 97 | 1014.5 |
| 20260901114930 | 18 | 355 | 0.0 | 0.0 | 0.00 | 0.00 | 0.00 | 97 | 1015.1 |
| 20260901114427 | 18 | 355 | 0.0 | 0.0 | 0.00 | 0.00 | 0.00 | 97 | 1015.2 |
| 20260901113926 | 18 | 11 | 0.0 | 0.0 | 0.00 | 0.00 | 0.00 | 96 | 1015.4 |
| 20260901113426 | -17 | 0.0 | 0.0 | 0.00 | 0.00 | 0.00 | 1015.0 | ||
| 20260901112913 | -17 | 0.0 | 0.0 | 0.00 | 0.00 | 0.00 | 1014.8 | ||
| 20260901112328 | -17 | 0.0 | 0.0 | 0.00 | 0.00 | 0.00 | 1014.8 | ||
| 20260901111820 | -17 | 0.0 | 0.0 | 0.00 | 0.00 | 0.00 | 1014.9 | ||
| 20260901111228 | -17 | 0.0 | 0.0 | 0.00 | 0.00 | 0.00 | 1015.0 | ||
| 20260901110722 | -17 | 0.0 | 0.0 | 0.00 | 0.00 | 0.00 | 1014.8 | ||
| 20260901110216 | -17 | 0.0 | 0.0 | 0.00 | 0.00 | 0.00 | 1014.8 | ||
| 20260901105710 | -17 | 0.0 | 0.0 | 0.00 | 0.00 | 0.00 | 1014.7 | ||
| 20260901104626 | -17 | 0.0 | 0.0 | 0.00 | 0.00 | 0.00 | 1014.9 | ||
| 20260901104119 | -17 | 0.0 | 0.0 | 0.00 | 0.00 | 0.00 | 1014.8 | ||
| 20260901103523 | -17 | 0.0 | 0.0 | 0.00 | 0.00 | 0.00 | 1014.6 | ||
| 20260901103022 | -17 | 0.0 | 0.0 | 0.00 | 0.00 | 0.00 | 1015.3 | ||
| 20260901102520 | -17 | 0.0 | 0.0 | 0.00 | 0.00 | 0.00 | 1015.5 | ||
| 20260901101926 | -17 | 0.0 | 0.0 | 0.00 | 0.00 | 0.00 | 1015.0 | ||
| 20260901101329 | -17 | 0.0 | 0.0 | 0.00 | 0.00 | 0.00 | 1015.0 | ||
| 20260901100821 | -17 | 0.0 | 0.0 | 0.00 | 0.00 | 0.00 | 1015.1 | ||
| 20260901100319 | -17 | 0.0 | 0.0 | 0.00 | 0.00 | 0.00 | 1015.2 | ||
| 20260901095818 | -17 | 0.0 | 0.0 | 0.00 | 0.00 | 0.00 | 1015.2 | ||
| 20260901095220 | -17 | 0.0 | 0.0 | 0.00 | 0.00 | 0.00 | 1015.3 | ||
| 20260901094717 | -17 | 0.0 | 0.0 | 0.00 | 0.00 | 0.00 | 1015.4 | ||
| 20260901094122 | -17 | 0.0 | 0.0 | 0.00 | 0.00 | 0.00 | 1015.2 | ||
| 20260901093619 | -17 | 0.0 | 0.0 | 0.00 | 0.00 | 0.00 | 1015.1 | ||
| 20260901093019 | -17 | 0.0 | 0.0 | 0.00 | 0.00 | 0.00 | 1015.1 | ||
| 20260901091923 | -17 | 0.0 | 0.0 | 0.00 | 0.00 | 0.00 | 1015.5 | ||
| 20260901091417 | -17 | 0.0 | 0.0 | 0.00 | 0.00 | 0.00 | 1015.3 | ||
| 20260901090825 | -17 | 0.0 | 0.0 | 0.00 | 0.00 | 0.00 | 1015.2 | ||
| 20260901090326 | -17 | 0.0 | 0.0 | 0.00 | 0.00 | 0.00 | 1015.3 | ||
| 20260901085225 | -17 | 0.0 | 0.0 | 0.00 | 0.00 | 0.00 | 1015.2 | ||
| 20260901084725 | -17 | 0.0 | 0.0 | 0.00 | 0.00 | 0.00 | 1015.2 | ||
| 20260901084221 | -17 | 0.0 | 0.0 | 0.00 | 0.00 | 0.00 | 1015.0 | ||
| 20260901083624 | -17 | 0.0 | 0.0 | 0.00 | 0.00 | 0.00 | 1014.9 | ||
| 20260901083121 | -17 | 0.0 | 0.0 | 0.00 | 0.00 | 0.00 | 1014.9 | ||
| 20260901082022 | -17 | 0.0 | 0.0 | 0.00 | 0.00 | 0.00 | 1014.8 | ||
| 20260901081425 | -17 | 0.0 | 0.0 | 0.00 | 0.00 | 0.00 | 1014.8 | ||
| 20260901080923 | -17 | 0.0 | 0.0 | 0.00 | 0.00 | 0.00 | 1015.1 | ||
| 20260901080417 | -17 | 0.0 | 0.0 | 0.00 | 0.00 | 0.00 | 1015.5 | ||
| 20260901075829 | -17 | 0.0 | 0.0 | 0.00 | 0.00 | 0.00 | 1015.5 | ||
| 20260901075326 | -17 | 0.0 | 0.0 | 0.00 | 0.00 | 0.00 | 1015.5 | ||
| 20260901073730 | 18 | 190 | 0.0 | 6.4 | 0.00 | 0.00 | 0.00 | 95 | 1015.1 |
| 20260901073229 | 18 | 190 | 0.0 | 6.4 | 0.00 | 0.00 | 0.00 | 95 | 1015.2 |
| 20260901072723 | 18 | 190 | 0.0 | 0.0 | 0.00 | 0.00 | 0.00 | 95 | 1015.1 |
| 20260901071206 | 18 | 190 | 0.0 | 0.0 | 0.00 | 0.00 | 0.00 | 95 | 1015.3 |
| 20260901070659 | 18 | 190 | 0.0 | 0.0 | 0.00 | 0.00 | 0.00 | 95 | 1015.4 |
| 20260901070153 | 18 | 190 | 1.6 | 6.4 | 0.00 | 0.00 | 0.00 | 95 | 1015.3 |
| 20260901065647 | 18 | 190 | 1.6 | 6.4 | 0.00 | 0.00 | 0.00 | 95 | 1015.3 |
| 20260901064136 | 18 | 273 | 0.0 | 0.0 | 0.00 | 0.00 | 0.00 | 95 | 1015.4 |
| 20260901063633 | 18 | 273 | 0.0 | 0.0 | 0.00 | 0.00 | 0.00 | 95 | 1015.4 |
| 20260901063131 | 18 | 273 | 0.0 | 0.0 | 0.00 | 0.00 | 0.00 | 95 | 1015.4 |
| 20260901062629 | 18 | 273 | 0.0 | 0.0 | 0.00 | 0.00 | 0.00 | 95 | 1015.5 |
| 20260901062129 | 18 | 273 | 0.0 | 0.0 | 0.00 | 0.00 | 0.00 | 95 | 1015.5 |
| 20260901061629 | 18 | 273 | 0.0 | 0.0 | 0.00 | 0.00 | 0.00 | 94 | 1015.5 |
| 20260901061129 | 18 | 273 | 0.0 | 0.0 | 0.00 | 0.00 | 0.00 | 94 | 1015.6 |
| 20260901060627 | 18 | 273 | 0.0 | 0.0 | 0.00 | 0.00 | 0.00 | 94 | 1015.8 |
| 20260901055625 | 18 | 273 | 0.0 | 0.0 | 0.00 | 0.00 | 0.00 | 94 | 1015.7 |
| 20260901055125 | 18 | 273 | 0.0 | 0.0 | 0.00 | 0.00 | 0.00 | 94 | 1015.7 |
| 20260901054625 | 18 | 273 | 0.0 | 0.0 | 0.00 | 0.00 | 0.00 | 94 | 1015.9 |
| 20260901054125 | 18 | 273 | 0.0 | 0.0 | 0.00 | 0.00 | 0.00 | 94 | 1016.0 |
| 20260901053625 | 18 | 273 | 0.0 | 0.0 | 0.00 | 0.00 | 0.00 | 94 | 1016.2 |
| 20260901053125 | 19 | 273 | 0.0 | 0.0 | 0.00 | 0.00 | 0.00 | 93 | 1016.1 |
| 20260901052626 | 19 | 273 | 0.0 | 0.0 | 0.00 | 0.00 | 0.00 | 93 | 1016.2 |
| 20260901052121 | 19 | 273 | 0.0 | 0.0 | 0.00 | 0.00 | 0.00 | 93 | 1016.2 |
| 20260901051119 | 19 | 211 | 0.0 | 0.0 | 0.00 | 0.00 | 0.00 | 93 | 1016.1 |
| 20260901050119 | 19 | 211 | 0.0 | 3.2 | 0.00 | 0.00 | 0.00 | 93 | 1015.9 |
| 20260901045619 | 19 | 211 | 1.6 | 8.0 | 0.00 | 0.00 | 0.00 | 93 | 1016.0 |
| 20260901045120 | 19 | 196 | 1.6 | 8.0 | 0.00 | 0.00 | 0.00 | 93 | 1015.9 |
| 20260901044619 | 19 | 173 | 0.0 | 8.0 | 0.00 | 0.00 | 0.00 | 93 | 1015.8 |
| 20260901044119 | 20 | 165 | 0.0 | 0.0 | 0.00 | 0.00 | 0.00 | 93 | 1015.8 |
| 20260901043620 | 20 | 162 | 0.0 | 0.0 | 0.00 | 0.00 | 0.00 | 93 | 1015.8 |
| 20260901043118 | 20 | 161 | 0.0 | 0.0 | 0.00 | 0.00 | 0.00 | 93 | 1015.6 |
| 20260901042616 | 20 | 161 | 0.0 | 0.0 | 0.00 | 0.00 | 0.00 | 93 | 1015.7 |
| 20260901042115 | 20 | 161 | 0.0 | 0.0 | 0.00 | 0.00 | 0.00 | 94 | 1015.7 |
| 20260901041111 | 20 | 155 | 0.0 | 0.0 | 0.00 | 0.00 | 0.00 | 94 | 1015.9 |
| 20260901040611 | 19 | 155 | 0.0 | 0.0 | 0.00 | 0.00 | 0.00 | 94 | 1015.9 |
| 20260901040111 | 19 | 155 | 0.0 | 0.0 | 0.00 | 0.00 | 0.00 | 94 | 1016.0 |
| 20260901035611 | 19 | 155 | 0.0 | 0.0 | 0.00 | 0.00 | 0.00 | 94 | 1016.1 |
| 20260901034611 | 19 | 155 | 0.0 | 0.0 | 0.00 | 0.00 | 0.00 | 94 | 1016.2 |
| 20260901033611 | 19 | 155 | 0.0 | 0.0 | 0.00 | 0.00 | 0.00 | 94 | 1016.1 |
| 20260901033107 | 19 | 155 | 0.0 | 0.0 | 0.00 | 0.00 | 0.00 | 93 | 1016.1 |
| 20260901032607 | 19 | 155 | 0.0 | 0.0 | 0.00 | 0.00 | 0.00 | 94 | 1016.2 |
| 20260901031607 | 19 | 155 | 0.0 | 8.0 | 0.00 | 0.00 | 0.00 | 94 | 1016.2 |
| 20260901031106 | 19 | 155 | 0.0 | 8.0 | 0.00 | 0.00 | 0.00 | 94 | 1016.2 |
| 20260901030608 | 19 | 169 | 0.0 | 0.0 | 0.00 | 0.00 | 0.00 | 94 | 1016.3 |
| 20260901030108 | 19 | 265 | 0.0 | 0.0 | 0.00 | 0.00 | 0.00 | 93 | 1016.5 |
| 20260901025607 | 19 | 265 | 0.0 | 0.0 | 0.00 | 0.00 | 0.00 | 93 | 1016.4 |
| 20260901025107 | 19 | 265 | 0.0 | 0.0 | 0.00 | 0.00 | 0.00 | 93 | 1016.4 |
| 20260901024603 | 19 | 264 | 0.0 | 0.0 | 0.00 | 0.00 | 0.00 | 93 | 1016.3 |
| 20260901024103 | 20 | 264 | 0.0 | 0.0 | 0.00 | 0.00 | 0.00 | 93 | 1016.3 |
| 20260901023103 | 20 | 265 | 0.0 | 0.0 | 0.00 | 0.00 | 0.00 | 93 | 1016.5 |
| 20260901022603 | 20 | 265 | 0.0 | 0.0 | 0.00 | 0.00 | 0.00 | 92 | 1016.7 |
| 20260901022104 | 20 | 228 | 0.0 | 0.0 | 0.00 | 0.00 | 0.00 | 92 | 1016.6 |
| 20260901021603 | 20 | 224 | 0.0 | 0.0 | 0.00 | 0.00 | 0.00 | 93 | 1016.6 |
| 20260901021103 | 20 | 224 | 0.0 | 0.0 | 0.00 | 0.00 | 0.00 | 93 | 1016.5 |
| 20260901020603 | 20 | 342 | 0.0 | 0.0 | 0.00 | 0.00 | 0.00 | 92 | 1016.3 |
| 20260901020104 | 20 | 344 | 0.0 | 0.0 | 0.00 | 0.00 | 0.00 | 92 | 1016.3 |
| 20260901015603 | 20 | 344 | 0.0 | 0.0 | 0.00 | 0.00 | 0.00 | 92 | 1016.5 |
| 20260901014601 | 20 | 324 | 0.0 | 0.0 | 0.00 | 0.00 | 0.00 | 92 | 1016.6 |
| 20260901014100 | 20 | 208 | 0.0 | 0.0 | 0.00 | 0.00 | 0.00 | 92 | 1016.5 |
| 20260901013559 | 20 | 208 | 0.0 | 0.0 | 0.00 | 0.00 | 0.00 | 92 | 1016.5 |
| 20260901013059 | 20 | 208 | 0.0 | 1.6 | 0.00 | 0.00 | 0.00 | 93 | 1016.4 |
| 20260901012556 | 20 | 202 | 0.0 | 1.6 | 0.00 | 0.00 | 0.00 | 93 | 1016.4 |
| 20260901012057 | 20 | 324 | 0.0 | 0.0 | 0.00 | 0.00 | 0.00 | 92 | 1016.6 |
| 20260901011555 | 20 | 324 | 0.0 | 0.0 | 0.00 | 0.00 | 0.00 | 92 | 1016.6 |
| 20260901010554 | 20 | 312 | 0.0 | 0.0 | 0.00 | 0.00 | 0.00 | 92 | 1016.4 |
| 20260901010055 | 20 | 307 | 0.0 | 0.0 | 0.00 | 0.00 | 0.00 | 92 | 1016.5 |
| 20260901005553 | 20 | 307 | 0.0 | 0.0 | 0.00 | 0.00 | 0.00 | 92 | 1016.6 |
| 20260901005053 | 20 | 307 | 0.0 | 0.0 | 0.00 | 0.00 | 0.00 | 92 | 1016.8 |
| 20260901004549 | 20 | 306 | 0.0 | 0.0 | 0.00 | 0.00 | 0.00 | 92 | 1016.8 |
| 20260901004049 | 20 | 307 | 0.0 | 0.0 | 0.00 | 0.00 | 0.00 | 92 | 1016.9 |
| 20260901003549 | 20 | 307 | 0.0 | 0.0 | 0.00 | 0.00 | 0.00 | 91 | 1016.7 |
| 20260901003051 | 20 | 307 | 0.0 | 0.0 | 0.00 | 0.00 | 0.00 | 91 | 1016.4 |
| 20260901002549 | 20 | 306 | 0.0 | 0.0 | 0.00 | 0.00 | 0.00 | 91 | 1016.4 |
| 20260901002049 | 20 | 307 | 0.0 | 0.0 | 0.00 | 0.00 | 0.00 | 91 | 1016.4 |
| 20260901001549 | 20 | 307 | 0.0 | 0.0 | 0.00 | 0.00 | 0.00 | 91 | 1016.4 |
| 20260901000549 | 20 | 307 | 0.0 | 0.0 | 0.00 | 0.00 | 0.00 | 91 | 1016.5 |
| 20260901000045 | 20 | 306 | 0.0 | 0.0 | 0.00 | 0.00 | 0.00 | 91 | 1016.5 |
| 20260831235045 | 20 | 307 | 0.0 | 0.0 | 0.00 | 0.00 | 0.00 | 90 | 1016.5 |
| 20260831234545 | 20 | 307 | 0.0 | 0.0 | 0.00 | 0.00 | 0.00 | 90 | 1016.5 |
| 20260831234046 | 20 | 307 | 0.0 | 0.0 | 0.00 | 0.00 | 0.00 | 90 | 1016.5 |
| 20260831233545 | 20 | 307 | 0.0 | 0.0 | 0.00 | 0.00 | 0.00 | 89 | 1016.5 |
| 20260831233045 | 21 | 306 | 0.0 | 0.0 | 0.00 | 0.00 | 0.00 | 89 | 1016.5 |
| 20260831232545 | 21 | 303 | 0.0 | 0.0 | 0.00 | 0.00 | 0.00 | 89 | 1016.5 |
| 20260831232048 | 21 | 303 | 0.0 | 0.0 | 0.00 | 0.00 | 0.00 | 89 | 1016.6 |
| 20260831231541 | 21 | 303 | 0.0 | 0.0 | 0.00 | 0.00 | 0.00 | 89 | 1016.7 |
| 20260831231042 | 21 | 303 | 0.0 | 0.0 | 0.00 | 0.00 | 0.00 | 89 | 1016.8 |
| 20260831230537 | 21 | 303 | 0.0 | 0.0 | 0.00 | 0.00 | 0.00 | 89 | 1016.9 |
| 20260831230040 | 21 | 303 | 0.0 | 0.0 | 0.00 | 0.00 | 0.00 | 88 | 1016.9 |
| 20260831225537 | 21 | 303 | 0.0 | 0.0 | 0.00 | 0.00 | 0.00 | 89 | 1016.9 |
| 20260831224535 | 21 | 302 | 0.0 | 0.0 | 0.00 | 0.00 | 0.00 | 88 | 1016.9 |
| 20260831224035 | 21 | 302 | 0.0 | 0.0 | 0.00 | 0.00 | 0.00 | 88 | 1016.9 |
| 20260831223535 | 21 | 302 | 0.0 | 0.0 | 0.00 | 0.00 | 0.00 | 88 | 1016.8 |
| 20260831223032 | 21 | 302 | 0.0 | 0.0 | 0.00 | 0.00 | 0.00 | 88 | 1016.8 |
| 20260831222030 | 21 | 302 | 0.0 | 0.0 | 0.00 | 0.00 | 0.00 | 87 | 1016.8 |
| 20260831221529 | 21 | 302 | 0.0 | 0.0 | 0.00 | 0.00 | 0.00 | 87 | 1016.8 |
| 20260831221030 | 21 | 302 | 0.0 | 0.0 | 0.00 | 0.00 | 0.00 | 87 | 1016.8 |
| 20260831220528 | 21 | 302 | 0.0 | 0.0 | 0.00 | 0.00 | 0.00 | 87 | 1017.0 |
| 20260831220029 | 21 | 302 | 0.0 | 0.0 | 0.00 | 0.00 | 0.00 | 87 | 1017.0 |
| 20260831215520 | 21 | 302 | 0.0 | 0.0 | 0.00 | 0.00 | 0.00 | 87 | 1017.0 |
| 20260831215014 | 21 | 302 | 0.0 | 0.0 | 0.00 | 0.00 | 0.00 | 87 | 1017.0 |
| 20260831214508 | 21 | 302 | 0.0 | 0.0 | 0.00 | 0.00 | 0.00 | 87 | 1017.0 |
| 20260831214002 | 21 | 302 | 0.0 | 0.0 | 0.00 | 0.00 | 0.00 | 87 | 1017.0 |
| 20260831213456 | 21 | 302 | 0.0 | 0.0 | 0.00 | 0.00 | 0.00 | 87 | 1017.0 |
| 20260831212950 | 21 | 302 | 0.0 | 0.0 | 0.00 | 0.00 | 0.00 | 86 | 1017.0 |
| 20260831212444 | 21 | 302 | 0.0 | 0.0 | 0.00 | 0.00 | 0.00 | 86 | 1017.0 |
| 20260831211938 | 21 | 302 | 0.0 | 0.0 | 0.00 | 0.00 | 0.00 | 86 | 1017.1 |
| 20260831211432 | 21 | 302 | 0.0 | 0.0 | 0.00 | 0.00 | 0.00 | 86 | 1017.1 |
| 20260831210926 | 21 | 302 | 0.0 | 0.0 | 0.00 | 0.00 | 0.00 | 86 | 1017.2 |
| 20260831210420 | 21 | 302 | 0.0 | 0.0 | 0.00 | 0.00 | 0.00 | 86 | 1017.3 |
| 20260831205915 | 21 | 302 | 0.0 | 0.0 | 0.00 | 0.00 | 0.00 | 86 | 1017.3 |
| 20260831205408 | 21 | 302 | 0.0 | 0.0 | 0.00 | 0.00 | 0.00 | 86 | 1017.4 |
| 20260831204903 | 21 | 302 | 0.0 | 0.0 | 0.00 | 0.00 | 0.00 | 87 | 1017.4 |
| 20260831204356 | 21 | 302 | 0.0 | 0.0 | 0.00 | 0.00 | 0.00 | 87 | 1017.4 |
| 20260831203856 | 21 | 302 | 0.0 | 0.0 | 0.00 | 0.00 | 0.00 | 87 | 1017.5 |
| 20260831203355 | 21 | 302 | 0.0 | 0.0 | 0.00 | 0.00 | 0.00 | 88 | 1017.4 |
| 20260831202853 | 21 | 302 | 0.0 | 0.0 | 0.00 | 0.00 | 0.00 | 88 | 1017.5 |
| 20260831202351 | 21 | 302 | 0.0 | 0.0 | 0.00 | 0.00 | 0.00 | 88 | 1017.4 |
| 20260831201348 | 21 | 302 | 0.0 | 0.0 | 0.00 | 0.00 | 0.00 | 89 | 1017.5 |
| 20260831200850 | 21 | 302 | 0.0 | 0.0 | 0.00 | 0.00 | 0.00 | 89 | 1017.5 |
| 20260831200346 | 21 | 302 | 0.0 | 0.0 | 0.00 | 0.00 | 0.00 | 89 | 1017.6 |
| 20260831195847 | 21 | 302 | 0.0 | 0.0 | 0.00 | 0.00 | 0.00 | 90 | 1017.7 |
| 20260831194842 | 21 | 246 | 0.0 | 0.0 | 0.00 | 0.00 | 0.00 | 90 | 1017.7 |
| 20260831194343 | 21 | 246 | 0.0 | 0.0 | 0.00 | 0.00 | 0.00 | 90 | 1017.8 |
| 20260831193841 | 21 | 246 | 0.0 | 0.0 | 0.00 | 0.00 | 0.00 | 90 | 1017.8 |
| 20260831193340 | 21 | 246 | 0.0 | 0.0 | 0.00 | 0.00 | 0.00 | 90 | 1017.9 |
| 20260831192340 | 21 | 244 | 0.0 | 1.6 | 0.00 | 0.00 | 0.00 | 89 | 1017.9 |
| 20260831191841 | 21 | 242 | 0.0 | 1.6 | 0.00 | 0.00 | 0.00 | 89 | 1018.0 |
| 20260831191339 | 21 | 201 | 0.0 | 6.4 | 0.00 | 0.00 | 0.00 | 89 | 1017.9 |
| 20260831190837 | 21 | 183 | 1.6 | 8.0 | 0.00 | 0.00 | 0.00 | 88 | 1017.9 |
| 20260831190336 | 21 | 188 | 1.6 | 8.0 | 0.00 | 0.00 | 0.00 | 87 | 1018.0 |
| 20260831185831 | 21 | 170 | 0.0 | 6.4 | 0.00 | 0.00 | 0.00 | 87 | 1018.0 |
| 20260831185325 | 21 | 196 | 1.6 | 3.2 | 0.00 | 0.00 | 0.00 | 87 | 1018.0 |
| 20260831184313 | 21 | 164 | 0.0 | 0.0 | 0.00 | 0.00 | 0.00 | 87 | 1018.2 |
| 20260831183806 | 21 | 167 | 0.0 | 0.0 | 0.00 | 0.00 | 0.00 | 87 | 1018.3 |
| 20260831183300 | 21 | 167 | 0.0 | 0.0 | 0.00 | 0.00 | 0.00 | 87 | 1018.3 |
| 20260831182757 | 21 | 166 | 0.0 | 0.0 | 0.00 | 0.00 | 0.00 | 87 | 1018.3 |
| 20260831182248 | 21 | 177 | 0.0 | 0.0 | 0.00 | 0.00 | 0.00 | 87 | 1018.4 |
| 20260831181742 | 21 | 180 | 0.0 | 0.0 | 0.00 | 0.00 | 0.00 | 88 | 1018.5 |
| 20260831181236 | 21 | 183 | 0.0 | 0.0 | 0.00 | 0.00 | 0.00 | 88 | 1018.5 |
| 20260831180730 | 21 | 221 | 0.0 | 8.0 | 0.00 | 0.00 | 0.00 | 88 | 1018.5 |
| 20260831175718 | 21 | 163 | 3.2 | 9.7 | 0.00 | 0.00 | 0.00 | 88 | 1018.5 |
| 20260831175212 | 21 | 211 | 3.2 | 9.7 | 0.00 | 0.00 | 0.00 | 88 | 1018.5 |
| 20260831174706 | 21 | 208 | 6.4 | 11.3 | 0.00 | 0.00 | 0.00 | 88 | 1018.5 |
| 20260831174159 | 21 | 151 | 8.0 | 17.7 | 0.00 | 0.00 | 0.00 | 88 | 1018.5 |
| 20260831173654 | 21 | 163 | 9.7 | 17.7 | 0.00 | 0.00 | 0.00 | 86 | 1018.5 |